Iowa City, IA

4:50 AM CDT on July 25, 2017 (GMT -0500)
Iowa City Municipal

Weather History for KIOW - December, 2012

Change the Weather History Date:

Tuesday, December 4, 2012

  Actual Average Record
Temperature  
Mean Temperature 46 °F 29 °F  
Max Temperature 60 °F 37 °F 71 °F (1998)
Min Temperature 31 °F 21 °F -3 °F (1991)
Degree Days  
Heating Degree Days 19 36  
Month to date heating degree days 58 140  
Since 1 July heating degree days 1397 1447  
Cooling Degree Days 0 0  
Month to date cooling degree days 0 0  
Year to date cooling degree days 1266 912  
Moisture  
Dew Point 29 °F    
Average Humidity 56    
Maximum Humidity 82    
Minimum Humidity 30    
Precipitation  
Precipitation 0.00 in 0.07 in 1.13 in (1973)
Month to date precipitation 0.02 0.28  
Year to date precipitation 24.85 35.04  
Sea Level Pressure  
Sea Level Pressure 30.20 in    
Wind  
Wind Speed 7 mph (NW)    
Max Wind Speed 16 mph    
Max Gust Speed 22 mph    
Visibility 10 miles    
Events      
T = Trace of Precipitation, MM = Missing Value Source: NWS Daily Summary

Daily Weather History Graph

Daily Weather History Graph

Search for Another Location

Airport or City:

Trip Planner

Search our weather history database for the weather conditions in past years. The results will help you decide how hot, cold, wet, or windy it might be!

Date:

Astronomy

Dec. 04, 2012 Rise Set
Actual Time 7:17 AM CST 4:36 PM CST
Civil Twilight 6:46 AM CST 5:07 PM CST
Nautical Twilight 6:11 AM CST 5:41 PM CST
Astronomical Twilight 5:37 AM CST 6:15 PM CST
Moon 10:26 PM CST (12/4) 11:08 AM CST (12/4)
Length of Visible Light 10h 21m
Length of Day
9h 18m
Waning Gibbous, 69% of the Moon is Illuminated
Dec 4
Waning Gibbous
Dec 6
Last Quarter
Dec 13
New
Dec 19
First Quarter
Dec 28
Full

Hourly Weather History & Observations

Time (CST) Temp. Windchill Dew Point Humidity Pressure Visibility Wind Dir Wind Speed Gust Speed Precip Events Conditions
12:52 AM 46.0 °F 39.9 °F 37.0 °F 71% 30.01 in 10.0 mi NNW 13.8 mph - N/A   Clear
1:52 AM 45.0 °F 39.7 °F 35.1 °F 68% 30.02 in 10.0 mi NNW 10.4 mph - N/A   Clear
2:52 AM 43.0 °F 39.5 °F 33.1 °F 68% 30.05 in 10.0 mi NNW 5.8 mph - N/A   Clear
3:52 AM 39.0 °F 36.8 °F 32.0 °F 76% 30.08 in 10.0 mi WSW 3.5 mph - N/A   Clear
4:52 AM 37.9 °F 34.4 °F 30.9 °F 76% 30.11 in 10.0 mi SW 4.6 mph - N/A   Clear
5:52 AM 37.0 °F - 30.0 °F 76% 30.14 in 10.0 mi Calm Calm - N/A   Clear
6:52 AM 33.1 °F - 28.0 °F 82% 30.17 in 10.0 mi Calm Calm - N/A   Clear
7:52 AM 34.0 °F - 28.9 °F 82% 30.17 in 10.0 mi Calm Calm - N/A   Clear
8:52 AM 37.0 °F - 30.0 °F 76% 30.20 in 10.0 mi Calm Calm - N/A   Clear
9:52 AM 45.0 °F 42.6 °F 30.0 °F 56% 30.20 in 10.0 mi Variable 4.6 mph - N/A   Clear
10:52 AM 51.1 °F - 32.0 °F 48% 30.21 in 10.0 mi WNW 5.8 mph - N/A   Clear
11:52 AM 55.9 °F - 30.9 °F 39% 30.18 in 10.0 mi West 9.2 mph - N/A   Clear
12:52 PM 59.0 °F - 28.0 °F 31% 30.17 in 10.0 mi West 11.5 mph - N/A   Clear
1:52 PM 59.0 °F - 28.0 °F 31% 30.17 in 10.0 mi WNW 15.0 mph - N/A   Clear
2:52 PM 57.9 °F - 26.1 °F 30% 30.18 in 10.0 mi NW 12.7 mph - N/A   Clear
3:52 PM 55.0 °F - 28.9 °F 37% 30.21 in 10.0 mi NNW 10.4 mph - N/A   Clear
4:52 PM 51.1 °F - 28.9 °F 43% 30.23 in 10.0 mi NW 6.9 mph - N/A   Clear
5:52 PM 48.0 °F - 28.9 °F 48% 30.25 in 10.0 mi NNW 6.9 mph - N/A   Clear
6:52 PM 45.0 °F 41.8 °F 28.9 °F 53% 30.27 in 10.0 mi NW 5.8 mph - N/A   Clear
7:52 PM 39.9 °F 35.1 °F 28.9 °F 65% 30.30 in 10.0 mi NW 6.9 mph - N/A   Clear
8:52 PM 41.0 °F 35.2 °F 28.0 °F 60% 30.31 in 10.0 mi NNW 9.2 mph - N/A   Clear
9:52 PM 37.9 °F 34.4 °F 27.0 °F 65% 30.33 in 10.0 mi NW 4.6 mph - N/A   Clear
10:52 PM 37.9 °F 30.9 °F 24.1 °F 57% 30.35 in 10.0 mi North 10.4 mph - N/A   Clear
11:52 PM 36.0 °F 29.6 °F 21.0 °F 55% 30.38 in 10.0 mi North 8.1 mph - N/A   Clear